Terminal Aerodrome Forecast
Issued by NWS

Home | Current Version | Previous Version | Text Only | Print | Product List | Glossary On
Versions: 1 2 3 4 5 6 7 8 9 10 11 12
805
FTUS46 KSEW 251732
TAFHQM
TAF
KHQM 251732Z 2518/2618 09008KT P6SM OVC040
     FM252200 12012KT P6SM -RA OVC030
     FM260800 27012KT P6SM -SHRA BKN020
     FM261700 29012KT P6SM VCSH BKN030=

USA.gov is the U.S. government's official web portal to all federal, state and local government web resources and services.